Total_Precipitation_Accumulation
1.12 0.99 0.94 0.96 0.89 0.83 0.80 0.79 0.80 0.77 0.68 0.64 0.60 0.51 0.48 0.49 0.44 0.37 0.32 0.31 0.32 0.38 0.54 0.79 1.11 1.44 1.68 1.78 1.76 1.58 1.48 1.34 1.18 1.10 1.05 1.13 1.14 1.12 1.18 1.32 1.31 1.24 1.23
1.13 1.05 0.94 0.91 0.84 0.75 0.69 0.67 0.65 0.68 0.66 0.60 0.56 0.48 0.44 0.45 0.44 0.41 0.40 0.42 0.37 0.36 0.45 0.64 0.89 1.19 1.56 1.82 1.90 1.82 1.67 1.57 1.40 1.24 1.16 1.15 1.19 1.17 1.17 1.24 1.34 1.32 1.28
1.20 1.15 1.05 0.93 0.88 0.83 0.80 0.75 0.72 0.70 0.65 0.59 0.57 0.52 0.44 0.40 0.42 0.43 0.44 0.45 0.44 0.43 0.46 0.61 0.76 0.98 1.39 1.78 2.00 2.09 1.94 1.76 1.62 1.46 1.25 1.15 1.17 1.22 1.21 1.26 1.35 1.43 1.43
1.30 1.22 1.15 1.05 1.00 1.00 0.97 0.91 0.82 0.76 0.70 0.60 0.56 0.53 0.48 0.42 0.38 0.39 0.44 0.45 0.44 0.45 0.48 0.53 0.67 0.89 1.18 1.56 1.93 2.20 2.27 2.08 1.95 1.84 1.62 1.39 1.23 1.24 1.29 1.31 1.37 1.48 1.58
1.56 1.36 1.24 1.21 1.21 1.21 1.13 1.03 0.94 0.82 0.76 0.69 0.62 0.59 0.51 0.46 0.42 0.40 0.41 0.45 0.47 0.46 0.48 0.50 0.55 0.69 0.92 1.27 1.78 2.23 2.58 2.58 2.39 2.26 2.05 1.83 1.56 1.38 1.40 1.40 1.43 1.53 1.66
1.75 1.62 1.45 1.37 1.36 1.36 1.29 1.17 1.04 0.94 0.86 0.84 0.80 0.73 0.60 0.51 0.47 0.44 0.41 0.43 0.46 0.47 0.47 0.51 0.55 0.56 0.64 0.82 1.20 1.77 2.30 2.66 2.70 2.61 2.48 2.26 2.03 1.80 1.68 1.61 1.57 1.65 1.78
1.76 1.75 1.57 1.49 1.37 1.31 1.26 1.20 1.13 1.09 1.02 1.00 1.06 1.00 0.84 0.68 0.59 0.53 0.49 0.49 0.50 0.53 0.60 0.64 0.69 0.66 0.63 0.66 0.72 1.01 1.58 2.24 2.65 2.82 2.82 2.77 2.55 2.27 2.05 1.89 1.82 1.85 1.93
1.76 1.85 1.75 1.64 1.56 1.46 1.41 1.39 1.33 1.26 1.18 1.08 1.12 1.18 1.09 0.97 0.76 0.58 0.54 0.52 0.55 0.62 0.72 0.76 0.80 0.81 0.77 0.68 0.56 0.65 0.91 1.48 2.18 2.75 2.92 2.93 2.98 2.81 2.46 2.21 2.10 2.13 2.19
1.67 1.79 1.86 1.80 1.75 1.70 1.60 1.47 1.41 1.36 1.34 1.21 1.09 1.31 1.32 1.03 0.74 0.58 0.51 0.47 0.49 0.52 0.56 0.62 0.67 0.72 0.80 0.84 0.71 0.64 0.69 0.97 1.53 2.34 2.92 3.04 3.12 3.26 3.06 2.62 2.35 2.29 2.34
1.70 1.71 1.77 1.80 1.77 1.73 1.65 1.53 1.41 1.33 1.38 1.40 1.21 1.06 1.03 0.96 0.95 0.75 0.54 0.47 0.47 0.48 0.47 0.48 0.50 0.56 0.68 0.82 0.88 0.82 0.79 0.85 1.16 1.73 2.48 3.10 3.31 3.51 3.65 3.28 2.80 2.52 2.43
1.74 1.69 1.69 1.74 1.77 1.74 1.70 1.62 1.54 1.52 1.48 1.46 1.37 1.18 1.00 0.87 0.86 0.93 0.74 0.56 0.52 0.51 0.50 0.48 0.49 0.49 0.53 0.65 0.79 0.85 0.92 0.92 1.09 1.42 1.87 2.64 3.39 3.73 3.94 3.82 3.30 2.80 2.54
1.79 1.73 1.63 1.66 1.74 1.76 1.74 1.73 1.69 1.65 1.62 1.54 1.43 1.33 1.30 1.24 1.04 0.99 0.90 0.68 0.60 0.55 0.54 0.55 0.55 0.54 0.54 0.56 0.68 0.82 0.89 0.97 1.05 1.21 1.40 1.87 2.77 3.58 3.90 3.88 3.59 3.16 2.75
1.91 1.75 1.65 1.58 1.62 1.64 1.64 1.65 1.73 1.76 1.71 1.71 1.68 1.54 1.41 1.33 1.21 1.18 1.22 1.03 0.82 0.69 0.67 0.66 0.65 0.64 0.61 0.60 0.69 0.75 0.77 0.91 1.05 1.14 1.19 1.28 1.74 2.69 3.61 4.00 3.81 3.45 3.15
1.86 1.75 1.67 1.57 1.51 1.52 1.56 1.59 1.64 1.68 1.68 1.66 1.62 1.59 1.55 1.45 1.39 1.36 1.40 1.44 1.29 0.97 0.84 0.78 0.70 0.68 0.68 0.69 0.75 0.80 0.71 0.85 0.99 1.07 1.19 1.23 1.37 1.75 2.60 3.65 4.26 3.94 3.47
1.91 1.83 1.72 1.68 1.60 1.56 1.54 1.53 1.55 1.55 1.57 1.61 1.59 1.53 1.54 1.45 1.44 1.43 1.40 1.50 1.70 1.50 1.01 0.78 0.75 0.74 0.71 0.75 0.86 0.82 0.74 0.85 0.99 1.01 1.10 1.20 1.27 1.36 1.70 2.42 3.45 4.19 4.13
2.03 2.05 1.95 1.84 1.73 1.71 1.67 1.61 1.53 1.45 1.47 1.52 1.59 1.62 1.60 1.50 1.44 1.43 1.43 1.41 1.45 1.57 1.32 0.86 0.79 0.81 0.83 0.83 0.93 0.87 0.84 0.97 1.02 0.98 1.03 1.10 1.18 1.30 1.45 1.74 2.37 3.38 4.05
2.10 2.15 2.16 2.07 1.95 1.85 1.80 1.78 1.70 1.62 1.58 1.50 1.49 1.53 1.52 1.47 1.47 1.45 1.43 1.35 1.29 1.38 1.43 0.95 0.79 0.81 0.88 0.93 0.97 0.94 0.93 0.94 0.95 0.95 1.00 1.09 1.15 1.25 1.39 1.58 1.85 2.48 3.39
2.14 2.13 2.26 2.26 2.15 2.04 1.95 1.94 1.92 1.83 1.79 1.70 1.59 1.52 1.48 1.49 1.55 1.51 1.46 1.36 1.25 1.21 1.33 1.16 0.85 0.83 0.91 0.99 1.05 1.08 1.08 1.06 1.01 1.07 1.08 1.12 1.18 1.21 1.33 1.50 1.70 2.01 2.60
2.02 2.10 2.26 2.37 2.27 2.20 2.11 1.96 1.97 2.04 2.01 1.93 1.84 1.80 1.71 1.67 1.71 1.67 1.58 1.42 1.28 1.19 1.19 1.21 1.00 0.88 0.94 1.03 1.16 1.18 1.17 1.16 1.09 1.15 1.18 1.21 1.24 1.23 1.29 1.41 1.58 1.78 2.04
1.82 2.03 2.19 2.34 2.38 2.41 2.49 2.36 2.23 2.11 2.08 2.07 2.02 1.96 1.97 1.93 1.87 1.82 1.79 1.57 1.35 1.28 1.23 1.27 1.15 0.99 0.96 1.04 1.30 1.42 1.40 1.32 1.24 1.14 1.19 1.22 1.28 1.29 1.29 1.29 1.37 1.52 1.77
1.73 1.86 1.99 2.14 2.23 2.44 2.94 3.03 2.59 2.06 1.88 1.87 1.81 1.75 1.81 1.96 2.03 2.02 2.01 1.83 1.66 1.61 1.52 1.49 1.36 1.20 1.10 1.19 1.42 1.49 1.57 1.49 1.48 1.31 1.18 1.13 1.13 1.15 1.17 1.24 1.32 1.41 1.60
1.68 1.78 1.84 1.87 1.94 2.18 2.83 2.95 2.40 1.90 1.68 1.65 1.64 1.56 1.55 1.67 1.75 1.80 1.92 1.94 1.95 2.00 1.95 1.80 1.61 1.44 1.24 1.19 1.32 1.61 1.73 1.82 1.87 1.54 1.35 1.29 1.16 1.20 1.20 1.19 1.28 1.32 1.49
1.60 1.63 1.67 1.66 1.68 1.92 2.45 2.50 2.21 1.80 1.59 1.45 1.41 1.39 1.37 1.38 1.49 1.38 1.52 1.65 1.73 1.90 2.03 1.99 1.92 1.61 1.38 1.30 1.47 1.72 1.80 1.89 1.85 1.66 1.64 1.74 1.49 1.38 1.30 1.30 1.37 1.33 1.46
1.56 1.51 1.51 1.50 1.52 1.69 2.20 2.34 2.17 1.76 1.61 1.48 1.40 1.27 1.21 1.21 1.36 1.41 1.44 1.44 1.37 1.48 1.72 1.86 1.96 1.77 1.55 1.54 1.76 2.00 2.13 2.16 2.02 1.90 1.85 2.02 1.73 1.54 1.44 1.39 1.40 1.36 1.39
1.44 1.41 1.38 1.41 1.39 1.52 2.03 2.39 2.25 1.79 1.73 1.62 1.49 1.40 1.30 1.16 1.42 1.55 1.43 1.34 1.22 1.26 1.43 1.70 1.88 1.89 1.89 1.96 2.11 2.36 2.51 2.58 2.49 2.14 1.95 2.05 1.91 1.69 1.63 1.64 1.57 1.50 1.37
1.27 1.28 1.24 1.25 1.24 1.35 1.78 2.27 2.33 1.79 1.69 1.58 1.49 1.46 1.56 1.47 1.55 1.50 1.32 1.33 1.35 1.21 1.17 1.25 1.35 1.44 1.45 1.52 1.81 2.03 2.24 2.48 2.46 2.44 2.06 2.03 2.05 2.00 2.20 1.88 1.60 1.38 1.26